Погода в Галлиполи

Италия     40°03′17″N   17°59′46″E
темп.,
°C
ветер,
м/с
пор.,
м/с
влажн.,
%
обл.,
%
осадки,
мм/ч
давл.,
гПа
погр.,
м
6 мая, чт
чт623:00+16з34840 0.0 101463
02:00+16сз22800 0.0 101430
05:00+16з2281100 0.0 101460
08:00+16ююз227894 0.0 101572
11:00+17юз337741 0.0 1016239
14:00+17ю3370100 0.0 1016246
17:00+18ю6878100 0.0 1015229
20:00+17ююв5678100 0.0 101588
7 мая, пт
пт723:00+17ю5778100 0.0 1015113
02:00+17ю4684100 0.0 1014113
05:00+17ю5680100 0.0 1013110
08:00+17ю5680100 0.0 1014113
11:00+18ю55735 0.0 1014176
14:00+18ю6772100 0.0 1013225
17:00+18ю6770100 0.0 1011158
20:00+18ююз4476100 0.0 101155
8 мая, сб
сб823:00+17зсз23785 0.0 101123
02:00+17сз34730 0.0 101142
05:00+17сз55770 0.0 101195
08:00+18с69692 0.0 1012191
11:00+18зсз711730 0.0 1014308
14:00+20сз79682 0.0 1013370
17:00+20с911610 0.0 1014271
20:00+18с914645 0.0 1016407
9 мая, вс
вс923:00+17с915715 0.0 1017391
02:00+16ссз813760 0.0 1017426
05:00+15с812800 0.0 1018435
08:00+16с810785 0.0 1019452
11:00+19ссз56640 0.0 1019196
14:00+19сз55660 0.0 1019268
17:00+20з22660 0.0 1018122
20:00+18ю33760 0.0 101936
10 мая, пн
пн1023:00+17всв11744 0.0 102011
02:00+17в11725 0.0 101911
05:00+17юв227110 0.0 101911
08:00+18ююв227642 0.0 101975
11:00+18ююз33775 0.0 1019249
14:00+19ююз447748 0.0 1018261
17:00+18ююз55751 0.0 1017197
20:00+18ю45780 0.0 101667